This is the latest recevied weather packets stored in our database for station/object EA1FBN. If no packets are shown the sender has not sent any weather packets the latest 10 day(s).
| Time | Temp. | Humidity | Pressure | Rain* | Wind** | Luminosity | Snow |
|---|---|---|---|---|---|---|---|
| 1787744428 | 23.89° C | 49% | 1009.4 hPa | 0 mm | - | - | - |
| 1787744128 | 23.33° C | 48% | 1009.5 hPa | 0 mm | - | - | - |
| 1787743828 | 22.78° C | 48% | 1009.5 hPa | 0 mm | - | - | - |
| 1787743528 | 23.33° C | 49% | 1009.5 hPa | 0 mm | - | - | - |
| 1787743228 | 23.33° C | 48% | 1009.6 hPa | 0 mm | - | - | - |
| 1787742928 | 23.33° C | 49% | 1009.5 hPa | 0 mm | - | - | - |
| 1787742628 | 22.78° C | 49% | 1009.7 hPa | 0 mm | - | - | - |
| 1787742328 | 22.78° C | 49% | 1009.8 hPa | 0 mm | - | - | - |
| 1787742028 | 22.78° C | 50% | 1009.6 hPa | 0 mm | - | - | - |
| 1787741728 | 22.22° C | 51% | 1009.8 hPa | 0 mm | - | - | - |
| 1787741428 | 22.22° C | 50% | 1009.9 hPa | 0 mm | - | - | - |
| 1787741128 | 22.22° C | 50% | 1009.9 hPa | 0 mm | - | - | - |
| 1787740828 | 22.22° C | 50% | 1009.9 hPa | 0 mm | - | - | - |
| 1787740528 | 22.78° C | 50% | 1009.9 hPa | 0 mm | - | - | - |
| 1787740228 | 22.78° C | 50% | 1009.9 hPa | 0 mm | - | - | - |
| 1787739928 | 22.78° C | 49% | 1010 hPa | 0 mm | - | - | - |
| 1787739628 | 22.78° C | 50% | 1010.1 hPa | 0 mm | - | - | - |
| 1787739328 | 22.22° C | 51% | 1010.2 hPa | 0 mm | - | - | - |
| 1787739029 | 22.22° C | 50% | 1010.1 hPa | 0 mm | - | - | - |
| 1787738728 | 22.22° C | 53% | 1010.3 hPa | 0 mm | - | - | - |
| 1787738429 | 22.22° C | 51% | 1010.3 hPa | 0 mm | - | - | - |
| 1787738128 | 22.22° C | 52% | 1010.5 hPa | 0 mm | - | - | - |
| 1787737829 | 22.22° C | 51% | 1010.5 hPa | 0 mm | - | - | - |
| 1787737529 | 22.22° C | 53% | 1010.6 hPa | 0 mm | - | - | - |
| 1787737229 | 21.67° C | 52% | 1010.6 hPa | 0 mm | - | - | - |
* Rain latest hour (hover to see other rain measurements)
** Current wind speed in m/s (hover to see current wind gust speed)